Location: Newark
(25.6108°S, 54.5803°W)
Time: 11:31:54
(UTC+00:00)

Transit 2A - Pass Details

Date: 02 November 2020
Orbit: 595 x 964 km, 66.7° (Epoch: 28 November)

Event Time Altitude Azimuth Distance (km) Brightness Sun altitude
Rises 01:44:01 0° 214° (SW) 3,279 10.1 -43.0°
Reaches altitude 10° 01:46:28 10° 221° (SW) 2,403 9.2 -43.3°
Enters shadow 01:47:24 15° 225° (SW) 2,088 8.7 -43.5°
